| time (UTC) | temp F | wind direction | speed MPH | gust MPH | rain 1hr in | rain 24hr in | rain mn in | humidity % | barometer mb |
| 20260510103030 | 68 | 332 | 0.0 | 1.0 | 0.00 | 1.01 | 0.00 | 88 | 1011.9 |
| 20260510101529 | 69 | 332 | 0.0 | 1.0 | 0.00 | 1.01 | 0.00 | 88 | 1011.8 |
| 20260510100033 | 68 | 332 | 0.0 | 0.0 | 0.00 | 1.01 | 0.00 | 87 | 1011.6 |
| 20260510094532 | 69 | 332 | 0.0 | 1.0 | 0.00 | 1.01 | 0.00 | 87 | 1011.4 |
| 20260510093023 | 70 | 332 | 0.0 | 1.0 | 0.00 | 1.01 | 0.00 | 87 | 1011.8 |
| 20260510091519 | 71 | 332 | 0.0 | 1.0 | 0.00 | 1.01 | 0.00 | 87 | 1011.7 |
| 20260510090021 | 72 | 241 | 0.0 | 1.0 | 0.00 | 1.01 | 0.00 | 87 | 1011.5 |
| 20260510084520 | 72 | 241 | 0.0 | 4.0 | 0.00 | 1.01 | 0.00 | 87 | 1011.5 |
| 20260510083019 | 72 | 218 | 0.0 | 4.0 | 0.00 | 1.01 | 0.00 | 87 | 1011.4 |
| 20260510081516 | 72 | 227 | 2.0 | 5.0 | 0.00 | 1.01 | 0.00 | 87 | 1011.4 |
| 20260510080016 | 72 | 233 | 1.0 | 5.0 | 0.00 | 1.01 | 0.00 | 87 | 1011.3 |
| 20260510074515 | 72 | 240 | 1.0 | 4.0 | 0.00 | 1.01 | 0.00 | 87 | 1011.2 |
| 20260510073014 | 72 | 204 | 2.0 | 4.0 | 0.00 | 1.01 | 0.00 | 88 | 1011.2 |
| 20260510071519 | 71 | 229 | 1.0 | 4.0 | 0.00 | 1.01 | 0.00 | 88 | 1011.2 |
| 20260510070013 | 71 | 215 | 1.0 | 3.0 | 0.00 | 1.01 | 0.00 | 88 | 1011.2 |
| 20260510064512 | 71 | 255 | 0.0 | 3.0 | 0.00 | 1.01 | 0.00 | 88 | 1011.4 |
| 20260510063011 | 71 | 253 | 0.0 | 2.0 | 0.00 | 1.01 | 0.00 | 88 | 1011.3 |
| 20260510061514 | 72 | 224 | 0.0 | 2.0 | 0.00 | 1.01 | 0.00 | 88 | 1011.1 |
| 20260510060009 | 72 | 141 | 0.0 | 2.0 | 0.00 | 1.01 | 0.00 | 88 | 1011.3 |
| 20260510054508 | 72 | 139 | 0.0 | 3.0 | 0.00 | 1.01 | 0.00 | 88 | 1011.5 |
| 20260510053008 | 72 | 159 | 1.0 | 5.0 | 0.00 | 1.01 | 0.00 | 88 | 1011.0 |
| 20260510051506 | 72 | 138 | 0.0 | 7.0 | 0.00 | 1.01 | 0.00 | 88 | 1011.4 |
| 20260510050002 | 72 | 155 | 3.0 | 8.0 | 0.00 | 1.01 | 0.00 | 89 | 1010.6 |
| 20260510044611 | 72 | 216 | 3.0 | 8.0 | 0.00 | 1.01 | 1.01 | 89 | 1010.3 |
| 20260510043110 | 72 | 165 | 2.0 | 5.0 | 0.00 | 1.01 | 1.01 | 89 | 1011.0 |
| 20260510041600 | 71 | 179 | 4.0 | 8.0 | 0.00 | 1.01 | 1.01 | 89 | 1011.2 |
| 20260510040058 | 71 | 205 | 3.0 | 6.0 | 0.00 | 1.01 | 1.01 | 88 | 1011.5 |
| 20260510034558 | 71 | 117 | 1.0 | 7.0 | 0.00 | 1.01 | 1.01 | 88 | 1011.8 |
| 20260510033123 | 71 | 144 | 1.0 | 4.0 | 0.00 | 1.01 | 1.01 | 88 | 1012.2 |
| 20260510031621 | 71 | 137 | 2.0 | 6.0 | 0.00 | 1.01 | 1.01 | 87 | 1012.4 |
| 20260510024517 | 70 | 151 | 1.0 | 4.0 | 0.00 | 1.01 | 1.01 | 87 | 1012.8 |
| 20260510023011 | 70 | 267 | 0.0 | 2.0 | 0.00 | 1.01 | 1.01 | 87 | 1012.6 |
| 20260510021509 | 71 | 70 | 1.0 | 3.0 | 0.00 | 1.01 | 1.01 | 86 | 1012.2 |
| 20260510020009 | 71 | 337 | 0.0 | 3.0 | 0.00 | 1.01 | 1.01 | 86 | 1012.1 |
| 20260510014507 | 71 | 37 | 0.0 | 5.0 | 0.00 | 1.01 | 1.01 | 86 | 1011.7 |
| 20260510013005 | 71 | 148 | 1.0 | 4.0 | 0.00 | 1.01 | 1.01 | 86 | 1011.5 |
| 20260510011505 | 71 | 134 | 1.0 | 7.0 | 0.00 | 1.01 | 1.01 | 85 | 1011.0 |
| 20260510010004 | 71 | 132 | 1.0 | 5.0 | 0.00 | 1.01 | 1.01 | 85 | 1010.9 |
| 20260510004503 | 72 | 144 | 2.0 | 9.0 | 0.00 | 1.01 | 1.01 | 84 | 1010.9 |
| 20260510003004 | 72 | 64 | 1.0 | 8.0 | 0.00 | 1.01 | 1.01 | 84 | 1010.8 |
| 20260510001508 | 72 | 143 | 2.0 | 6.0 | 0.00 | 1.01 | 1.01 | 84 | 1010.9 |
| 20260510000002 | 72 | 75 | 1.0 | 6.0 | 0.00 | 1.01 | 1.01 | 84 | 1010.7 |
| 20260509234506 | 72 | 146 | 3.0 | 8.0 | 0.00 | 1.01 | 1.01 | 84 | 1010.3 |
| 20260509233100 | 72 | 86 | 2.0 | 9.0 | 0.00 | 1.01 | 1.01 | 84 | 1010.0 |
| 20260509231559 | 72 | 8 | 2.0 | 8.0 | 0.00 | 1.01 | 1.01 | 84 | 1010.0 |
| 20260509230107 | 73 | 121 | 3.0 | 14.0 | 0.00 | 1.01 | 1.01 | 83 | 1009.8 |
| 20260509224558 | 73 | 24 | 3.0 | 12.0 | 0.00 | 1.01 | 1.01 | 83 | 1009.8 |
| 20260509223100 | 73 | 102 | 2.0 | 6.0 | 0.00 | 1.01 | 1.01 | 82 | 1009.6 |
| 20260509221557 | 73 | 166 | 1.0 | 8.0 | 0.00 | 1.01 | 1.01 | 83 | 1009.6 |
| 20260509214555 | 74 | 325 | 1.0 | 5.0 | 0.00 | 1.01 | 1.01 | 83 | 1009.6 |
| 20260509213058 | 73 | 94 | 1.0 | 6.0 | 0.00 | 1.01 | 1.01 | 84 | 1009.5 |
| 20260509211557 | 71 | 60 | 1.0 | 6.0 | 0.00 | 1.01 | 1.01 | 85 | 1009.8 |
| 20260509210100 | 71 | 57 | 2.0 | 7.0 | 0.00 | 1.01 | 1.01 | 85 | 1010.4 |
| 20260509204600 | 72 | 53 | 5.0 | 9.0 | 0.01 | 1.01 | 1.01 | 83 | 1010.7 |
| 20260509203053 | 74 | 56 | 2.0 | 6.0 | 0.01 | 1.01 | 1.01 | 84 | 1010.6 |
| 20260509201553 | 74 | 145 | 2.0 | 6.0 | 0.01 | 1.01 | 1.01 | 86 | 1010.5 |
| 20260509200054 | 73 | 66 | 1.0 | 11.0 | 0.01 | 1.01 | 1.01 | 88 | 1010.0 |
| 20260509194556 | 72 | 116 | 3.0 | 17.0 | 0.20 | 1.00 | 1.00 | 90 | 1009.2 |
| 20260509193052 | 70 | 94 | 3.0 | 11.0 | 0.22 | 1.00 | 1.00 | 89 | 1010.0 |
| 20260509191558 | 70 | 67 | 2.0 | 12.0 | 0.24 | 1.00 | 1.00 | 90 | 1010.0 |
| 20260509190056 | 70 | 133 | 2.0 | 14.0 | 0.46 | 1.00 | 1.00 | 89 | 1009.8 |
| 20260509184549 | 69 | 68 | 3.0 | 12.0 | 0.52 | 0.80 | 0.80 | 89 | 1010.0 |
| 20260509183048 | 70 | 112 | 3.0 | 13.0 | 0.50 | 0.78 | 0.78 | 89 | 1010.1 |
| 20260509181552 | 69 | 53 | 3.0 | 11.0 | 0.48 | 0.76 | 0.76 | 89 | 1010.6 |
| 20260509180045 | 69 | 166 | 3.0 | 9.0 | 0.27 | 0.53 | 0.54 | 87 | 1010.9 |
| 20260509174553 | 70 | 112 | 2.0 | 9.0 | 0.28 | 0.28 | 0.28 | 87 | 1011.0 |
| 20260509173049 | 71 | 50 | 2.0 | 7.0 | 0.28 | 0.28 | 0.28 | 88 | 1011.0 |
| 20260509171549 | 70 | 64 | 1.0 | 7.0 | 0.28 | 0.28 | 0.28 | 87 | 1011.0 |
| 20260509170044 | 70 | 40 | 1.0 | 10.0 | 0.26 | 0.26 | 0.26 | 86 | 1011.6 |
| 20260509164536 | 71 | 78 | 3.0 | 8.0 | 0.00 | 0.00 | 0.00 | 82 | 1010.8 |
| 20260509163032 | 75 | 44 | 1.0 | 6.0 | 0.00 | 0.00 | 0.00 | 77 | 1010.9 |
| 20260509161531 | 79 | 246 | 3.0 | 11.0 | 0.00 | 0.00 | 0.00 | 84 | 1010.6 |
| 20260509160030 | 79 | 158 | 2.0 | 10.0 | 0.00 | 0.00 | 0.00 | 85 | 1010.7 |
| 20260509154533 | 79 | 213 | 1.0 | 5.0 | 0.00 | 0.00 | 0.00 | 85 | 1010.7 |
| 20260509153032 | 79 | 200 | 0.0 | 3.0 | 0.00 | 0.00 | 0.00 | 88 | 1010.3 |
| 20260509151526 | 78 | 255 | 1.0 | 4.0 | 0.00 | 0.00 | 0.00 | 87 | 1010.4 |
| 20260509150024 | 78 | 224 | 1.0 | 3.0 | 0.00 | 0.00 | 0.00 | 88 | 1010.1 |
| 20260509144524 | 78 | 236 | 1.0 | 5.0 | 0.00 | 0.00 | 0.00 | 88 | 1009.9 |
| 20260509143023 | 78 | 248 | 2.0 | 4.0 | 0.00 | 0.00 | 0.00 | 88 | 1009.7 |
| 20260509141521 | 78 | 249 | 1.0 | 3.0 | 0.00 | 0.00 | 0.00 | 88 | 1009.9 |
| 20260509140024 | 77 | 241 | 1.0 | 6.0 | 0.00 | 0.00 | 0.00 | 89 | 1010.2 |
| 20260509134520 | 77 | 253 | 0.0 | 4.0 | 0.00 | 0.00 | 0.00 | 89 | 1010.1 |
| 20260509133019 | 77 | 260 | 2.0 | 4.0 | 0.00 | 0.00 | 0.00 | 89 | 1009.9 |
| 20260509131530 | 78 | 207 | 1.0 | 3.0 | 0.00 | 0.00 | 0.00 | 89 | 1010.1 |
| 20260509130025 | 77 | 241 | 1.0 | 3.0 | 0.00 | 0.00 | 0.00 | 89 | 1010.2 |
| 20260509124521 | 77 | 246 | 1.0 | 4.0 | 0.00 | 0.00 | 0.00 | 89 | 1010.0 |
| 20260509123023 | 77 | 239 | 2.0 | 4.0 | 0.00 | 0.00 | 0.00 | 89 | 1010.0 |
| 20260509121517 | 77 | 225 | 1.0 | 4.0 | 0.00 | 0.00 | 0.00 | 89 | 1009.9 |
| 20260509120015 | 77 | 250 | 2.0 | 4.0 | 0.00 | 0.00 | 0.00 | 89 | 1009.9 |
| 20260509114515 | 77 | 252 | 1.0 | 3.0 | 0.00 | 0.00 | 0.00 | 89 | 1009.8 |
| 20260509113013 | 77 | 231 | 3.0 | 5.0 | 0.00 | 0.00 | 0.00 | 89 | 1009.6 |
| 20260509111512 | 77 | 250 | 1.0 | 6.0 | 0.00 | 0.00 | 0.00 | 89 | 1009.6 |
| 20260509110011 | 76 | 259 | 2.0 | 5.0 | 0.00 | 0.00 | 0.00 | 89 | 1009.6 |
| 20260509104510 | 76 | 171 | 2.0 | 4.0 | 0.00 | 0.00 | 0.00 | 89 | 1009.1 |